Find CO3D F3

NORAD ID: 64900 Int'l Des: 2025-156 Owner: CNES Country: F operational
LEOCIRCULARRETROGRADESSO

实时位置

正在加载3D地球...

关于 CO3D F3

正在加载描述...

即将过境

Passes for default location (London). Set your location on the main map for personalized predictions.

高度历史

Loading altitude history...

两行轨道根数

1 64900U 25156B 26104.80029037 -.00005574 00000-0 -25463-3 0 9996
2 64900 97.4328 184.4035 0001759 59.1814 300.9594 15.20191058 39902
Epoch: Apr 14, 2026 • Age: 7 hours

当前状态

高度 515.6 km
速度 7.61 km/s
星下点 66.49°N, 63.24°W
发射日期 Jul 26, 2025
运行时间 0.7 years
类型 earth observation

技术详情

分类 Payload
质量 285.00 kg
干质量 285.00 kg
总质量 285.00 kg
长度 1.20 m
直径 0.50 m
跨度 2.50 m
形状 Box+ 2 pan
制造商 ADST
平台类型 Astrobus-SE
阶段状态 In Orbit
所有者/国家 CNES/F

Most Searched